When you browse on this site, cookies collect data to enhance your experience and personalize the content and advertising you see.
Visit our Privacy Policy to learn more. By continuing to use the site, you agree to this use of cookies and data.
  • In Deutschland
  • Länderverzeichnis
  • Für 7 Tage
  • Wassertemperatur
  • Satellitenkarten
  • Wetterkarte
  • Widgets
  • user-avatar
    Anmelden

    Stündliche Wetter Tahancha

    Heute, 18 November, Sonntag

    Zeit Temperatur Niederschläge Wind Luftdruck Luftfeuchtigkeit
    00:00 -4°C° 0 mm 2 m/S 761 mmHg 69%
    01:00 -4°C° 0 mm 2 m/S 760 mmHg 69%
    02:00 -3°C° 0 mm 1 m/S 760 mmHg 70%
    03:00 -3°C° 0 mm 1 m/S 759 mmHg 71%
    04:00 -3°C° 0 mm 1 m/S 759 mmHg 71%
    05:00 -3°C° 0 mm 1 m/S 759 mmHg 71%
    06:00 -3°C° 0 mm 1 m/S 758 mmHg 71%
    07:00 -3°C° 0 mm 1 m/S 758 mmHg 71%
    08:00 -5°C° 0 mm 2 m/S 757 mmHg 71%
    09:00 -2°C° 0 mm 1 m/S 757 mmHg 67%
    10:00 -1°C° 0 mm 1 m/S 757 mmHg 63%
    11:00 0°C° 0 mm 1 m/S 756 mmHg 59%
    12:00 +1°C° 0 mm 1 m/S 756 mmHg 58%
    13:00 +1°C° 0 mm 1 m/S 755 mmHg 58%
    14:00 +2°C° 0 mm 1 m/S 755 mmHg 60%
    15:00 +1°C° 0 mm 1 m/S 755 mmHg 63%
    16:00 0°C° 0 mm 1 m/S 755 mmHg 67%
    17:00 -1°C° 0 mm 1 m/S 754 mmHg 70%
    18:00 -1°C° 0 mm 1 m/S 754 mmHg 71%
    19:00 -2°C° 0 mm 0 m/S 754 mmHg 72%
    20:00 -3°C° 0 mm 0 m/S 754 mmHg 72%
    21:00 -2°C° 0 mm 1 m/S 754 mmHg 72%
    22:00 -2°C° 0 mm 1 m/S 754 mmHg 72%
    23:00 -2°C° 0 mm 1 m/S 754 mmHg 73%

    Morgen, 19 November, Montag

    Zeit Temperatur Niederschläge Wind Luftdruck Luftfeuchtigkeit
    00:00 -2°C° 0 mm 1 m/S 754 mmHg 73%
    01:00 -2°C° 0 mm 1 m/S 754 mmHg 73%
    02:00 -2°C° 0 mm 1 m/S 755 mmHg 74%
    03:00 -2°C° 0 mm 1 m/S 754 mmHg 75%
    04:00 -2°C° 0 mm 1 m/S 754 mmHg 75%
    05:00 -5°C° 0 mm 2 m/S 754 mmHg 76%
    06:00 -4°C° 0 mm 2 m/S 754 mmHg 76%
    07:00 -4°C° 0 mm 2 m/S 754 mmHg 76%
    08:00 -4°C° 0 mm 2 m/S 754 mmHg 76%
    09:00 -4°C° 0 mm 3 m/S 754 mmHg 72%
    10:00 -2°C° 0 mm 3 m/S 754 mmHg 69%
    11:00 -1°C° 0 mm 3 m/S 755 mmHg 66%
    12:00 -1°C° 0 mm 4 m/S 754 mmHg 64%
    13:00 -1°C° 0 mm 4 m/S 754 mmHg 62%
    14:00 -1°C° 0 mm 4 m/S 754 mmHg 60%
    15:00 -1°C° 0 mm 5 m/S 754 mmHg 60%
    16:00 -2°C° 0 mm 5 m/S 754 mmHg 61%
    17:00 -2°C° 0 mm 5 m/S 753 mmHg 61%
    18:00 -2°C° 0 mm 5 m/S 753 mmHg 61%
    19:00 -2°C° 0 mm 4 m/S 753 mmHg 61%
    20:00 -2°C° 0 mm 4 m/S 753 mmHg 62%
    21:00 -3°C° 0.3 mm 4 m/S 753 mmHg 67%
    22:00 -4°C° 0.3 mm 5 m/S 753 mmHg 72%
    23:00 -4°C° 0.3 mm 5 m/S 753 mmHg 78%

    übermorgen, 20 November, Dienstag

    Zeit Temperatur Niederschläge Wind Luftdruck Luftfeuchtigkeit
    00:00 -4°C° 0.4 mm 5 m/S 753 mmHg 80%
    01:00 -5°C° 0.4 mm 5 m/S 753 mmHg 83%
    02:00 -5°C° 0.4 mm 6 m/S 753 mmHg 85%
    03:00 -5°C° 0.2 mm 6 m/S 753 mmHg 85%
    04:00 -5°C° 0.2 mm 6 m/S 753 mmHg 84%
    05:00 -5°C° 0.2 mm 6 m/S 753 mmHg 83%
    06:00 -5°C° 0 mm 5 m/S 753 mmHg 81%
    07:00 -5°C° 0 mm 5 m/S 753 mmHg 79%
    08:00 -5°C° 0 mm 5 m/S 754 mmHg 77%
    09:00 -4°C° 0 mm 5 m/S 754 mmHg 74%
    10:00 -4°C° 0 mm 5 m/S 754 mmHg 72%
    11:00 -2°C° 0 mm 5 m/S 754 mmHg 70%
    12:00 -2°C° 0 mm 4 m/S 754 mmHg 71%
    13:00 -1°C° 0 mm 4 m/S 754 mmHg 72%
    14:00 -1°C° 0 mm 4 m/S 754 mmHg 73%
    15:00 -2°C° 0 mm 4 m/S 755 mmHg 78%
    16:00 -3°C° 0 mm 4 m/S 755 mmHg 82%
    17:00 -4°C° 0 mm 3 m/S 755 mmHg 87%
    18:00 -4°C° 0 mm 3 m/S 755 mmHg 88%
    19:00 -4°C° 0 mm 3 m/S 755 mmHg 89%
    20:00 -5°C° 0 mm 3 m/S 755 mmHg 90%
    21:00 -5°C° 0 mm 3 m/S 755 mmHg 91%
    22:00 -5°C° 0 mm 3 m/S 755 mmHg 92%
    23:00 -5°C° 0 mm 3 m/S 755 mmHg 92%

    21 November, Mittwoch

    Zeit Temperatur Niederschläge Wind Luftdruck Luftfeuchtigkeit
    00:00 -4°C° 0 mm 2 m/S 755 mmHg 93%
    01:00 -5°C° 0 mm 2 m/S 755 mmHg 93%
    02:00 -5°C° 0 mm 2 m/S 755 mmHg 94%
    03:00 -5°C° 0 mm 2 m/S 755 mmHg 94%
    04:00 -6°C° 0 mm 3 m/S 755 mmHg 95%
    05:00 -6°C° 0 mm 3 m/S 755 mmHg 95%
    06:00 -6°C° 0 mm 3 m/S 755 mmHg 95%
    07:00 -6°C° 0 mm 3 m/S 755 mmHg 95%
    08:00 -6°C° 0 mm 3 m/S 755 mmHg 95%
    09:00 -5°C° 0 mm 3 m/S 755 mmHg 91%
    10:00 -4°C° 0 mm 3 m/S 755 mmHg 88%
    11:00 -1°C° 0 mm 3 m/S 755 mmHg 84%
    12:00 -1°C° 0 mm 3 m/S 755 mmHg 83%
    13:00 -1°C° 0 mm 3 m/S 755 mmHg 81%
    14:00 0°C° 0 mm 3 m/S 755 mmHg 80%
    15:00 -1°C° 0 mm 3 m/S 755 mmHg 83%
    16:00 -2°C° 0 mm 3 m/S 755 mmHg 86%
    17:00 -4°C° 0 mm 3 m/S 755 mmHg 90%
    18:00 -5°C° 0 mm 3 m/S 755 mmHg 90%
    19:00 -5°C° 0 mm 3 m/S 755 mmHg 90%
    20:00 -5°C° 0 mm 3 m/S 755 mmHg 91%
    21:00 -5°C° 0 mm 3 m/S 755 mmHg 91%
    22:00 -5°C° 0 mm 3 m/S 755 mmHg 92%
    23:00 -5°C° 0 mm 2 m/S 756 mmHg 92%

    22 November, Donnerstag

    Zeit Temperatur Niederschläge Wind Luftdruck Luftfeuchtigkeit
    00:00 -5°C° 0 mm 2 m/S 756 mmHg 93%
    01:00 -5°C° 0 mm 2 m/S 756 mmHg 93%
    02:00 -5°C° 0 mm 2 m/S 756 mmHg 93%
    03:00 -5°C° 0 mm 2 m/S 756 mmHg 94%
    04:00 -6°C° 0 mm 3 m/S 756 mmHg 94%
    05:00 -6°C° 0 mm 3 m/S 756 mmHg 94%
    06:00 -6°C° 0 mm 3 m/S 756 mmHg 94%
    07:00 -6°C° 0 mm 3 m/S 756 mmHg 94%
    08:00 -6°C° 0 mm 3 m/S 757 mmHg 94%
    09:00 -6°C° 0 mm 3 m/S 757 mmHg 91%
    10:00 -5°C° 0 mm 3 m/S 757 mmHg 87%
    11:00 -4°C° 0 mm 3 m/S 757 mmHg 83%
    12:00 -2°C° 0 mm 3 m/S 757 mmHg 82%
    13:00 -2°C° 0 mm 3 m/S 757 mmHg 80%
    14:00 -2°C° 0 mm 3 m/S 757 mmHg 79%
    15:00 -4°C° 0 mm 3 m/S 757 mmHg 80%
    16:00 -4°C° 0 mm 3 m/S 757 mmHg 81%
    17:00 -4°C° 0 mm 3 m/S 757 mmHg 82%
    18:00 -5°C° 0 mm 3 m/S 757 mmHg 84%
    19:00 -5°C° 0 mm 3 m/S 757 mmHg 86%
    20:00 -6°C° 0 mm 3 m/S 757 mmHg 88%
    21:00 -6°C° 0 mm 3 m/S 758 mmHg 88%
    22:00 -6°C° 0 mm 3 m/S 758 mmHg 89%
    23:00 -6°C° 0 mm 3 m/S 758 mmHg 90%

    23 November, Freitag

    Zeit Temperatur Niederschläge Wind Luftdruck Luftfeuchtigkeit
    00:00 -6°C° 0 mm 3 m/S 758 mmHg 91%
    01:00 -6°C° 0 mm 3 m/S 758 mmHg 91%
    02:00 -6°C° 0 mm 3 m/S 758 mmHg 92%
    03:00 -7°C° 0 mm 3 m/S 758 mmHg 93%
    04:00 -7°C° 0 mm 3 m/S 759 mmHg 94%
    05:00 -7°C° 0 mm 3 m/S 759 mmHg 94%
    06:00 -7°C° 0 mm 3 m/S 759 mmHg 93%
    07:00 -6°C° 0 mm 3 m/S 760 mmHg 92%
    08:00 -6°C° 0 mm 3 m/S 760 mmHg 91%
    09:00 -6°C° 0 mm 3 m/S 760 mmHg 88%
    10:00 -4°C° 0 mm 2 m/S 761 mmHg 86%
    11:00 -4°C° 0 mm 2 m/S 761 mmHg 83%
    12:00 -1°C° 0 mm 1 m/S 761 mmHg 82%
    13:00 -1°C° 0 mm 1 m/S 761 mmHg 81%
    14:00 -1°C° 0 mm 1 m/S 761 mmHg 80%
    15:00 -2°C° 0 mm 0 m/S 761 mmHg 83%
    16:00 -3°C° 0 mm 0 m/S 761 mmHg 85%
    17:00 -3°C° 0 mm 0 m/S 761 mmHg 88%
    18:00 -2°C° 0 mm 1 m/S 761 mmHg 89%
    19:00 -3°C° 0 mm 1 m/S 761 mmHg 90%
    20:00 -3°C° 0 mm 1 m/S 761 mmHg 91%
    21:00 -3°C° 0 mm 1 m/S 760 mmHg 92%
    22:00 -5°C° 0 mm 2 m/S 760 mmHg 92%
    23:00 -5°C° 0 mm 2 m/S 760 mmHg 93%
    Mehr zeigen